Date,TemperatureHighF,TemperatureAvgF,TemperatureLowF,DewpointHighF,DewpointAvgF,DewpointLowF,HumidityHigh,HumidityAvg,HumidityLow,PressureMaxIn,PressureMinIn,WindSpeedMaxMPH,WindSpeedAvgMPH,GustSpeedMaxMPH,PrecipitationSumIn
2013-1-1,28.0,25.4,22.0,24.0,21.2,18.0,86,84,79,29.69,29.11,1,0,3,0.00
2013-1-2,25.0,19.8,16.0,21.0,16.0,11.0,88,85,82,29.51,29.13,1,0,2,0.00
2013-1-3,25.0,21.7,17.0,19.0,16.2,12.0,84,79,76,29.61,29.50,0,0,3,0.00
2013-1-4,21.0,14.7,8.0,16.0,9.6,3.0,83,80,76,29.79,29.59,0,0,2,0.00
2013-1-5,12.0,9.7,7.0,8.0,5.5,3.0,85,83,80,29.78,29.35,0,0,2,0.00
2013-1-6,16.0,11.8,8.0,11.0,7.5,4.0,85,82,77,29.36,29.20,0,0,1,0.00
2013-1-7,14.0,5.0,-4.0,11.0,0.3,-9.0,86,80,76,29.47,29.12,1,0,2,0.00
2013-1-8,1.0,-3.6,-9.0,-3.0,-8.6,-14.0,81,79,74,30.04,29.45,0,0,1,0.00
2013-1-9,0.0,-3.9,-5.0,-5.0,-8.9,-10.0,81,79,77,30.11,29.85,0,0,0,0.00
2013-1-10,12.0,7.0,-5.0,8.0,2.9,-10.0,85,83,79,30.03,29.83,0,0,0,0.00
2013-1-11,16.0,11.7,3.0,13.0,8.2,0.0,92,85,82,30.14,29.82,0,0,0,0.00
2013-1-12,24.0,17.9,13.0,21.0,14.8,9.0,89,87,85,30.14,29.68,0,0,0,0.00
2013-1-13,32.0,29.7,22.0,30.0,27.6,19.0,92,92,89,29.70,29.48,0,0,0,0.00
2013-1-14,36.0,32.9,30.0,34.0,30.8,23.0,93,92,82,29.80,29.22,6,1,12,0.00
2013-1-15,30.0,14.4,7.0,25.0,9.6,2.0,85,81,74,30.17,29.78,6,1,12,0.00
2013-1-16,11.0,7.2,4.0,7.0,3.1,-1.0,85,83,80,30.17,29.80,0,0,2,0.00
2013-1-17,13.0,4.2,-8.0,8.0,-1.5,-15.0,86,77,70,30.12,29.75,1,0,5,0.00
2013-1-18,-8.0,-12.5,-16.0,-14.0,-18.3,-22.0,77,75,70,30.38,30.11,0,0,0,0.00
2013-1-19,4.0,-2.4,-12.0,-2.0,-8.1,-18.0,79,76,73,30.38,30.06,0,0,1,0.00
2013-1-20,12.0,7.2,-1.0,8.0,2.8,-7.0,85,82,76,30.07,29.98,0,0,1,0.00
2013-1-21,10.0,6.9,-2.0,6.0,2.3,-7.0,84,81,76,30.09,29.98,0,0,1,0.00
2013-1-22,8.0,-0.1,-3.0,2.0,-4.9,-8.0,82,80,75,29.99,29.71,0,0,1,0.00
2013-1-23,9.0,3.3,-3.0,4.0,-1.9,-8.0,83,79,66,29.71,29.57,0,0,2,0.00
2013-1-24,5.0,-1.5,-12.0,-4.0,-9.6,-19.0,73,68,63,29.79,29.62,0,0,2,0.00
2013-1-25,-12.0,-21.6,-30.0,-18.0,-28.1,-37.0,74,71,68,29.97,29.79,0,0,1,0.00
2013-1-26,-23.0,-29.3,-34.0,-30.0,-36.0,-41.0,71,69,67,30.10,29.97,0,0,1,0.00
2013-1-27,-29.0,-35.8,-38.0,-36.0,-42.8,-45.0,68,66,65,30.54,30.10,0,0,1,0.00
2013-1-28,-17.0,-30.7,-38.0,-23.0,-37.4,-45.0,74,68,65,30.56,30.02,0,0,1,0.00
2013-1-29,-6.0,-10.8,-18.0,-12.0,-16.6,-24.0,77,75,69,30.03,29.85,0,0,1,0.00
2013-1-30,9.0,0.6,-7.0,3.0,-4.9,-12.0,79,77,73,29.89,29.65,0,0,2,0.00
2013-1-31,12.0,9.3,7.0,7.0,4.9,3.0,84,81,77,30.06,29.73,1,0,2,0.00